[[{"header":{"parameterUnit":"m.s-1","parameterCategory":1,"la1":30.2992,"la2":30.254,"lo1":-89.0895,"lo2":-89.0443,"dy":0.0025,"dx":0.0025,"nx":19,"ny":19,"refTime":"2026-04-16T09:00:00:Z","depth":0,"parameterNumber":2,"parameterNumberName":"U-component_of_WINDS"},"data":[0,0,0,-1.0024,-1.0024,-0.9984,-0.9984,-0.9944,-0.9944,0,0,0,0,0,0,0,0,0,0,0,-1.0043,-1.0043,-1.0025,-1.0024,-0.9984,-0.9984,-0.9944,-0.9944,0,0,0,0,0,0,0,0,0,0,0,-1.0043,-1.0043,-1.0043,-1.0024,-0.9984,-0.9984,-0.9944,-0.997,0,0,0,0,0,0,0,0,0,0,-1.0007,-1.0031,-1.0043,-1.0043,-1.0023,-0.9984,-0.9984,-0.9971,-0.9968,-0.9967,0,-0.9968,0,-0.9955,-0.9942,-0.9942,0,0,0,-1.0018,-1.0034,-1.0016,-1.0043,-1.0023,-0.9984,-1.0,-0.997,-0.9967,-0.9963,-0.9967,-0.9965,-0.9955,-0.9942,-0.9942,-0.9953,-0.9953,0,0,-1.002,-1.004,-1.0019,-1.0015,-1.0022,-1.0002,-0.9999,-0.9968,-0.9973,-0.9967,-0.9964,-0.9954,-0.9942,-0.9941,-0.9952,-0.9953,0,0,0,-1.003,-1.0042,-1.0025,-1.0017,-1.0009,-1.0001,-0.9998,-0.9974,-0.9967,-0.9964,-0.9954,-0.9941,-0.9941,-0.9952,-0.9952,-0.9988,0,0,0,-1.0031,-1.0047,-1.0026,-1.0038,-1.001,-0.9991,-1.0006,-0.9969,-0.9965,-0.9954,-0.9941,-0.9941,-0.9952,-0.9952,-0.9986,-1.0001,0,0,0,-1.0043,-1.0049,-1.0046,-1.0039,-1.0023,-0.9991,-0.9982,-0.9968,-0.9959,-0.9942,-0.9941,-0.9951,-0.9952,-0.9984,-0.9999,-1.0011,0,0,0,-1.0062,-1.0077,-1.0047,-1.0059,-1.0023,-1.0013,-0.9982,-0.9973,-0.9963,-0.9941,-0.9952,-0.9952,-0.9984,-0.9997,-1.0009,-1.0025,-1.0033,0,0,-1.0092,-1.0081,-1.0087,-1.0059,-1.0059,-1.0018,-1.0023,-0.9994,-0.9974,-0.9961,-0.9961,-0.9987,-0.9998,-1.001,-1.0071,-1.0078,0,0,0,-1.0103,-1.0108,-1.0104,-1.0095,-1.0074,-1.0057,-1.0025,-1.0014,-1.0002,-0.9972,-0.9993,-0.9999,-1.0006,-1.0012,-1.0018,-1.0022,-0.9956,-0.9956,-0.9956,-1.0174,-1.0148,-1.0156,-1.0126,-1.0117,-1.0085,-1.0076,-1.0056,-1.0031,-1.0037,-1.0033,-1.0073,-1.0082,-1.0086,-1.0091,-1.0038,-1.0039,-1.0039,-1.0039,-1.0216,-1.0219,-1.0187,-1.0183,-1.0156,-1.0152,-1.0121,-1.0104,-1.0097,-1.0074,-1.0078,-1.0056,-1.0094,-1.0097,-1.0041,-1.0041,-1.004,-1.004,-1.004,-1.026,-1.0257,-1.0244,-1.0229,-1.022,-1.0188,-1.0183,-1.0157,-1.0133,-1.0137,-1.0131,-1.013,-1.0127,-1.0136,-1.0136,-1.0136,-1.0136,-1.0136,-1.0136,-1.0312,-1.0296,-1.0295,-1.0274,-1.0265,-1.025,-1.0218,-1.0208,-1.0191,-1.0172,-1.0172,-1.0148,-1.0102,-1.0092,-1.0138,-1.0138,-1.0138,-1.0137,-1.0137,-1.0366,-1.035,-1.0349,-1.034,-1.0313,-1.0306,-1.0273,-1.0256,-1.0244,-1.0242,-1.0217,-1.0187,-1.0174,-1.0169,-1.0161,-1.0222,-1.0222,-1.0222,-1.0222,-1.0405,-1.0396,-1.0389,-1.0377,-1.0361,-1.0332,-1.0331,-1.0305,-1.0276,-1.0267,-1.0255,-1.024,-1.0237,-1.0226,-1.022,-1.0212,-1.0285,-1.0285,-1.0285,-1.0437,-1.0425,-1.043,-1.0402,-1.0379,-1.036,-1.0359,-1.0345,-1.0309,-1.0287,-1.026,-1.0257,-1.0234,-1.0228,-1.0207,-1.0198,-1.0182,0,0]},{"header":{"parameterUnit":"m.s-1","parameterCategory":1,"la1":30.2992,"la2":30.254,"lo1":-89.0895,"lo2":-89.0443,"dy":0.0025,"dx":0.0025,"nx":19,"ny":19,"refTime":"2026-04-16T09:00:00:Z","depth":0,"parameterNumber":3,"parameterNumberName":"V-component_of_WINDS"},"data":[0,0,0,4.8115,4.8116,4.819,4.819,4.8294,4.8295,0,0,0,0,0,0,0,0,0,0,0,4.8101,4.8102,4.8115,4.8117,4.819,4.819,4.8293,4.8295,0,0,0,0,0,0,0,0,0,0,0,4.8101,4.8102,4.8104,4.8117,4.819,4.819,4.8293,4.8234,0,0,0,0,0,0,0,0,0,0,4.816,4.8157,4.8102,4.8104,4.8117,4.819,4.819,4.8231,4.8237,4.8265,0,4.8295,0,4.8297,4.8302,4.8303,0,0,0,4.811,4.8152,4.8164,4.8104,4.8118,4.819,4.8155,4.8234,4.8242,4.8274,4.8296,4.83,4.8298,4.8303,4.8304,4.8492,4.8494,0,0,4.8105,4.8119,4.8159,4.817,4.8162,4.8153,4.8157,4.8239,4.8262,4.8297,4.8302,4.83,4.8304,4.8305,4.8491,4.8493,0,0,0,4.8099,4.8116,4.8126,4.8166,4.8178,4.8155,4.816,4.8259,4.8261,4.8303,4.8301,4.8305,4.8306,4.849,4.8492,4.8564,0,0,0,4.8096,4.8112,4.8125,4.8134,4.8177,4.822,4.8179,4.8255,4.8264,4.8301,4.8305,4.8307,4.8489,4.8491,4.8559,4.8595,0,0,0,4.8094,4.8112,4.8126,4.8134,4.8167,4.8219,4.8225,4.8257,4.8264,4.8303,4.8308,4.8488,4.8491,4.8555,4.8588,4.8647,0,0,0,4.8095,4.8189,4.8127,4.8231,4.8166,4.8264,4.8225,4.8296,4.8339,4.8305,4.8489,4.8492,4.8553,4.8584,4.8643,4.8698,4.8724,0,0,4.8221,4.8205,4.8265,4.8212,4.8324,4.8251,4.8373,4.8399,4.839,4.8458,4.8462,4.8561,4.8587,4.8646,4.8862,4.8882,0,0,0,4.8309,4.8352,4.8379,4.8421,4.8444,4.8465,4.8471,4.848,4.8538,4.8429,4.8599,4.8614,4.8648,4.8674,4.8691,4.8718,4.8505,4.8504,4.8504,4.8506,4.849,4.8587,4.858,4.8621,4.8626,4.8656,4.8669,4.8641,4.8681,4.87,4.8834,4.8865,4.8877,4.8906,4.873,4.873,4.8731,4.8731,4.8687,4.8745,4.8705,4.8786,4.8767,4.8834,4.8841,4.8818,4.8876,4.8818,4.8847,4.8784,4.89,4.8924,4.8736,4.8735,4.8735,4.8734,4.8734,4.8813,4.8838,4.8848,4.8906,4.8951,4.8939,4.8996,4.8978,4.896,4.8989,4.9006,4.9005,4.8999,4.8999,4.8999,4.9,4.9,4.9001,4.9001,4.8938,4.8948,4.8999,4.9031,4.9054,4.9082,4.9086,4.9108,4.9127,4.9108,4.9108,4.9074,4.8915,4.8875,4.9008,4.9007,4.9006,4.9005,4.9005,4.9126,4.908,4.9159,4.9183,4.9216,4.9261,4.9237,4.9282,4.9297,4.9325,4.9285,4.9172,4.9153,4.9139,4.9105,4.929,4.929,4.929,4.929,4.923,4.922,4.9295,4.9333,4.9368,4.9354,4.944,4.9444,4.944,4.9448,4.9419,4.9373,4.936,4.9349,4.933,4.9298,4.9528,4.9528,4.9529,4.9343,4.9335,4.9413,4.9411,4.9435,4.9456,4.9536,4.9579,4.9566,4.9538,4.9453,4.9443,4.9368,4.9345,4.9314,4.9287,4.9227,0,0]}]]